When you browse on this site, cookies collect data to enhance your experience and personalize the content and advertising you see.
Visit our Privacy Policy to learn more. By continuing to use the site, you agree to this use of cookies and data.
  • In Hungary
  • List of Countries
  • For 7 days
  • Water Temperature
  • Satellite Maps
  • Weather Map
  • News
  • Weather Widgets
  • user-avatar
    Login

    Hourly Weather Orange Walk

    Today, 11 December, Tuesday

    Time Temperature Precipitation Wind Pressure Humidity
    00:00 +20°C° 0 mm 3 mps 765 mmHg 83%
    01:00 +19°C° 0 mm 3 mps 765 mmHg 84%
    02:00 +19°C° 0 mm 2 mps 764 mmHg 86%
    03:00 +18°C° 0 mm 2 mps 764 mmHg 87%
    04:00 +18°C° 0 mm 2 mps 765 mmHg 89%
    05:00 +18°C° 0 mm 2 mps 765 mmHg 90%
    06:00 +18°C° 0 mm 2 mps 765 mmHg 91%
    07:00 +19°C° 0 mm 3 mps 766 mmHg 83%
    08:00 +21°C° 0 mm 3 mps 766 mmHg 76%
    09:00 +22°C° 0 mm 3 mps 766 mmHg 68%
    10:00 +25°C° 0 mm 3 mps 766 mmHg 63%
    11:00 +26°C° 0 mm 3 mps 765 mmHg 59%
    12:00 +27°C° 0 mm 3 mps 765 mmHg 54%
    13:00 +27°C° 0 mm 3 mps 765 mmHg 54%
    14:00 +27°C° 0 mm 3 mps 764 mmHg 53%
    15:00 +27°C° 0 mm 2 mps 763 mmHg 53%
    16:00 +26°C° 0 mm 2 mps 764 mmHg 58%
    17:00 +25°C° 0 mm 2 mps 764 mmHg 63%
    18:00 +23°C° 0 mm 2 mps 764 mmHg 69%
    19:00 +21°C° 0 mm 2 mps 764 mmHg 71%
    20:00 +20°C° 0 mm 2 mps 765 mmHg 74%
    21:00 +20°C° 0 mm 2 mps 765 mmHg 76%
    22:00 +19°C° 0 mm 2 mps 765 mmHg 78%
    23:00 +18°C° 0 mm 2 mps 765 mmHg 80%

    Tomorrow, 12 December, Wednesday

    Time Temperature Precipitation Wind Pressure Humidity
    00:00 +18°C° 0 mm 2 mps 765 mmHg 82%
    01:00 +17°C° 0 mm 2 mps 764 mmHg 83%
    02:00 +17°C° 0 mm 2 mps 764 mmHg 84%
    03:00 +17°C° 0 mm 2 mps 763 mmHg 85%
    04:00 +16°C° 0 mm 2 mps 763 mmHg 86%
    05:00 +16°C° 0 mm 2 mps 763 mmHg 87%
    06:00 +16°C° 0 mm 2 mps 763 mmHg 87%
    07:00 +18°C° 0 mm 2 mps 764 mmHg 80%
    08:00 +20°C° 0 mm 2 mps 764 mmHg 73%
    09:00 +23°C° 0 mm 2 mps 764 mmHg 65%
    10:00 +25°C° 0 mm 2 mps 763 mmHg 61%
    11:00 +27°C° 0 mm 2 mps 763 mmHg 57%
    12:00 +28°C° 0 mm 2 mps 762 mmHg 53%
    13:00 +28°C° 0 mm 2 mps 761 mmHg 54%
    14:00 +28°C° 0 mm 2 mps 761 mmHg 54%
    15:00 +28°C° 0 mm 2 mps 760 mmHg 54%
    16:00 +27°C° 0 mm 2 mps 760 mmHg 62%
    17:00 +25°C° 0 mm 2 mps 760 mmHg 70%
    18:00 +23°C° 0 mm 2 mps 760 mmHg 78%
    19:00 +23°C° 0 mm 1 mps 760 mmHg 81%
    20:00 +22°C° 0 mm 1 mps 761 mmHg 84%
    21:00 +22°C° 0 mm 1 mps 761 mmHg 87%
    22:00 +21°C° 0 mm 1 mps 761 mmHg 89%
    23:00 +21°C° 0 mm 1 mps 761 mmHg 91%

    Day after tomorrow, 13 December, Thursday

    Time Temperature Precipitation Wind Pressure Humidity
    00:00 +21°C° 0 mm 1 mps 760 mmHg 92%
    01:00 +21°C° 0 mm 1 mps 760 mmHg 93%
    02:00 +21°C° 0 mm 1 mps 759 mmHg 94%
    03:00 +21°C° 0 mm 1 mps 759 mmHg 95%
    04:00 +21°C° 0 mm 1 mps 759 mmHg 95%
    05:00 +21°C° 0 mm 1 mps 759 mmHg 96%
    06:00 +21°C° 0 mm 1 mps 759 mmHg 96%
    07:00 +22°C° 0 mm 1 mps 759 mmHg 91%
    08:00 +24°C° 0 mm 1 mps 760 mmHg 86%
    09:00 +25°C° 0 mm 1 mps 760 mmHg 80%
    10:00 +27°C° 0 mm 1 mps 759 mmHg 77%
    11:00 +28°C° 0 mm 2 mps 759 mmHg 75%
    12:00 +29°C° 0 mm 2 mps 758 mmHg 72%
    13:00 +30°C° 0 mm 2 mps 758 mmHg 69%
    14:00 +31°C° 0 mm 2 mps 757 mmHg 67%
    15:00 +31°C° 0 mm 2 mps 756 mmHg 64%
    16:00 +29°C° 0 mm 2 mps 756 mmHg 73%
    17:00 +28°C° 0 mm 1 mps 757 mmHg 81%
    18:00 +26°C° 0 mm 1 mps 757 mmHg 89%
    19:00 +26°C° 0 mm 1 mps 757 mmHg 90%
    20:00 +26°C° 0 mm 1 mps 758 mmHg 91%
    21:00 +25°C° 0 mm 2 mps 758 mmHg 92%
    22:00 +25°C° 0 mm 2 mps 758 mmHg 93%
    23:00 +25°C° 0 mm 1 mps 758 mmHg 93%

    14 December, Friday

    Time Temperature Precipitation Wind Pressure Humidity
    00:00 +25°C° 0 mm 1 mps 758 mmHg 94%
    01:00 +24°C° 0 mm 1 mps 758 mmHg 95%
    02:00 +24°C° 0 mm 1 mps 758 mmHg 96%
    03:00 +24°C° 0 mm 1 mps 757 mmHg 97%
    04:00 +24°C° 0.2 mm 1 mps 758 mmHg 98%
    05:00 +23°C° 0.2 mm 1 mps 758 mmHg 98%
    06:00 +23°C° 0.2 mm 1 mps 759 mmHg 98%
    07:00 +24°C° 1.3 mm 1 mps 759 mmHg 97%
    08:00 +25°C° 1.3 mm 1 mps 760 mmHg 95%
    09:00 +26°C° 1.3 mm 2 mps 761 mmHg 93%
    10:00 +27°C° 1.1 mm 2 mps 761 mmHg 87%
    11:00 +29°C° 1.1 mm 2 mps 760 mmHg 81%
    12:00 +30°C° 1.1 mm 2 mps 760 mmHg 75%
    13:00 +29°C° 0.7 mm 2 mps 760 mmHg 79%
    14:00 +28°C° 0.7 mm 3 mps 759 mmHg 83%
    15:00 +28°C° 0.7 mm 3 mps 759 mmHg 87%
    16:00 +26°C° 0.7 mm 3 mps 760 mmHg 89%
    17:00 +25°C° 0.7 mm 3 mps 760 mmHg 92%
    18:00 +22°C° 0.7 mm 3 mps 761 mmHg 94%
    19:00 +22°C° 0 mm 3 mps 762 mmHg 93%
    20:00 +21°C° 0 mm 3 mps 762 mmHg 92%
    21:00 +21°C° 0 mm 3 mps 763 mmHg 91%
    22:00 +20°C° 0 mm 3 mps 763 mmHg 89%
    23:00 +20°C° 0 mm 3 mps 763 mmHg 87%

    15 December, Saturday

    Time Temperature Precipitation Wind Pressure Humidity
    00:00 +20°C° 0 mm 3 mps 763 mmHg 84%
    01:00 +19°C° 0 mm 3 mps 763 mmHg 83%
    02:00 +18°C° 0 mm 2 mps 763 mmHg 82%
    03:00 +18°C° 0 mm 2 mps 763 mmHg 81%
    04:00 +17°C° 0 mm 2 mps 763 mmHg 83%
    05:00 +17°C° 0 mm 2 mps 764 mmHg 84%
    06:00 +17°C° 0 mm 2 mps 764 mmHg 86%
    07:00 +18°C° 0 mm 2 mps 765 mmHg 78%
    08:00 +20°C° 0 mm 3 mps 765 mmHg 71%
    09:00 +22°C° 0 mm 3 mps 766 mmHg 64%
    10:00 +24°C° 0 mm 3 mps 765 mmHg 60%
    11:00 +25°C° 0 mm 3 mps 765 mmHg 55%
    12:00 +27°C° 0 mm 3 mps 764 mmHg 51%
    13:00 +27°C° 0 mm 2 mps 764 mmHg 50%
    14:00 +27°C° 0 mm 2 mps 763 mmHg 48%
    15:00 +28°C° 0 mm 2 mps 762 mmHg 47%
    16:00 +26°C° 0 mm 1 mps 763 mmHg 54%
    17:00 +24°C° 0 mm 1 mps 763 mmHg 61%
    18:00 +22°C° 0 mm 1 mps 763 mmHg 68%
    19:00 +22°C° 0 mm 1 mps 764 mmHg 70%
    20:00 +21°C° 0 mm 1 mps 764 mmHg 73%
    21:00 +21°C° 0 mm 1 mps 765 mmHg 75%
    22:00 +20°C° 0 mm 1 mps 765 mmHg 76%
    23:00 +20°C° 0 mm 1 mps 764 mmHg 78%

    16 December, Sunday

    Time Temperature Precipitation Wind Pressure Humidity
    00:00 +20°C° 0 mm 1 mps 764 mmHg 80%
    01:00 +18°C° 0 mm 2 mps 764 mmHg 82%
    02:00 +17°C° 0 mm 2 mps 764 mmHg 84%
    03:00 +17°C° 0 mm 2 mps 764 mmHg 86%
    04:00 +17°C° 0 mm 2 mps 764 mmHg 87%
    05:00 +16°C° 0 mm 2 mps 764 mmHg 87%
    06:00 +16°C° 0 mm 2 mps 765 mmHg 88%
    07:00 +18°C° 0 mm 2 mps 765 mmHg 81%
    08:00 +20°C° 0 mm 2 mps 765 mmHg 73%
    09:00 +23°C° 0 mm 2 mps 766 mmHg 66%
    10:00 +25°C° 0 mm 2 mps 765 mmHg 60%
    11:00 +26°C° 0 mm 2 mps 765 mmHg 55%
    12:00 +28°C° 0 mm 2 mps 764 mmHg 50%
    13:00 +28°C° 0 mm 2 mps 763 mmHg 50%
    14:00 +28°C° 0 mm 2 mps 763 mmHg 50%
    15:00 +28°C° 0 mm 2 mps 762 mmHg 50%
    16:00 +27°C° 0 mm 2 mps 762 mmHg 56%
    17:00 +25°C° 0 mm 1 mps 763 mmHg 63%
    18:00 +23°C° 0 mm 1 mps 763 mmHg 70%
    19:00 +23°C° 0 mm 1 mps 763 mmHg 71%
    20:00 +23°C° 0 mm 1 mps 764 mmHg 72%
    21:00 +22°C° 0 mm 1 mps 764 mmHg 73%
    22:00 +22°C° 0 mm 1 mps 764 mmHg 75%
    23:00 +22°C° 0 mm 1 mps 763 mmHg 77%
    Show more